{"data":{"norad_id":27858,"intl_designator":"2003-036A","name":"SCISAT 1","alt_names":[],"object_type":"PAYLOAD","status":"ACTIVE","operator":null,"country":"CA","launch_date":"2003-08-13","launch_site_code":"WRAS","launch_vehicle":null,"mission":null,"orbit_class":"UNKNOWN","rcs_meters":0.6788,"size_class":null,"mass_kg":null,"dimensions":null,"purposes":["science"],"wikipedia_slug":null,"has_3d_model":false,"image_url":null,"decayed_at":null,"tle_current":{"epoch":"2026-05-25T04:44:53.189376Z","epoch_age_seconds":61979,"freshness":"FRESH","line1":"1 27858U 03036A   26145.19783784  .00000448  00000+0  61933-4 0  9998","line2":"2 27858  73.9300 217.0178 0008627 284.3086  75.7132 14.81419978228047","mean_motion":14.81419978,"eccentricity":0.0008627,"inclination_deg":73.93,"raan_deg":217.0178,"arg_perigee_deg":284.3086,"mean_anomaly_deg":75.7132,"bstar":6.1933e-5,"rev_number":22804,"period_min":97.204035410949,"perigee_km":618.80406186832,"apogee_km":630.88700793403,"semimajor_km":7002.9825349012,"source":"CELESTRAK","updated_at":"2026-05-25T13:38:24.638119Z"}}}